Weather Roundup
Issued by NWS Chicago, IL

Home | Current Version | Previous Version | Text Only | Print | Product List | Glossary Off
Versions: 1 2 3 4 5 6 7 8 9 10 11 12 13 14 15 16 17 18 19 20 21 22 23 24 25 26 27 28 29 30 31 32 33 34 35 36 37 38 39 40 41 42 43 44 45 46 47 48 49 50

165
NZUS59 KLOT 221408
HRRLOT

CHICAGO AREA WEATHER ROUNDUP
NATIONAL WEATHER SERVICE CHICAGO/ROMEOVILLE IL
800 AM CST WED FEB 22 2017

NOTE: "FAIR" INDICATES FEW OR NO CLOUDS BELOW 12,000 FEET WITH NO
SIGNIFICANT WEATHER AND/OR OBSTRUCTIONS TO VISIBILITY.

* THESE STATIONS ARE NOT UNDER NWS QUALITY CONTROL. THEY ALSO MAY NOT
  REPORT WEATHER SUCH AS PRECIPITATION OR FOG.

ILZ005-006-012>014-019>023-221500-
NORTHEAST ILLINOIS

CITY           SKY/WX    TMP DP  RH WIND       PRES   REMARKS
OHARE          FOG       53  52  96 SW9       29.78F VSB 3/4
MIDWAY         FOG       54  52  93 S10       29.78F VSB 1/2
AURORA         FOG       54  54 100 SW9       29.81R VSB 1/4
LANSING*       CLOUDY    52  52 100 S9        29.82F FOG
JOLIET*        FOG       53  53 100 S8        29.80F VSB 1/4
WAUKEGAN       CLOUDY    53  53 100 SW10      29.77S FOG
DUPAGE AIRPORT FOG       53  51  93 SW10      29.80R VSB 1/4
WHEELING       CLOUDY    52  52 100 SW9       29.80R FOG
KANKAKEE*      FOG       48  47  98 CALM      29.83F VSB<1/4
MORRIS*        FOG       52  52  98 S10       29.78F VSB 1/4
LEWIS AIRPORT* DRZL/FOG  52  52 100 SW9       29.80F VSB 1/4
NORTHERLY ISL    N/A     54  52  93 S14         N/A
$$

WIZ051-052-058>065-066-070>072-221500-
SOUTHEAST WISCONSIN

CITY           SKY/WX    TMP DP  RH WIND       PRES   REMARKS
MILWAUKEE      CLOUDY    53  51  93 SW14G24   29.75F FOG
KENOSHA*       FOG       52  52 100 SW14      29.77S VSB 1/2
RACINE*        FOG       53  51  93 SW8       29.77S VSB 3/4
WAUKESHA       CLOUDY    52  52 100 SW7       29.76S FOG
WEST BEND        N/A     52  50  93 SW7       29.73S
$$

INZ001>003-010>013-019-020-221500-
NORTHWEST INDIANA

CITY           SKY/WX    TMP DP  RH WIND       PRES   REMARKS
GARY*          CLOUDY    54  52  94 S7        29.82F FOG
MICHIGAN CITY* NOT AVBL
RENSSELAER*    NOT AVBL
VALPARAISO       N/A     53  52  96 S9        29.83F FOG
$$

LMZ740>746-221500-
SOUTHERN LAKE MICHIGAN

STATION/POSITION TIME  SKY/WX   TEMP WIND        PRES    VSBY
                                AIR  DIR/SP/G
                 (UTC)          (F)  (DEG/KT/KT) (MB)    (MI)
HARRISON CRIB    1340            54  210/ 22/ 23   N/A
BURNHAM HARBOR   1400            54  220/  7/ 12   N/A
CALUMET HARBOR   1342            54  180/  6/  9 1008.8F
BURNS HARBOR     1340            53  190/  9/ 12 1010.5F
MICHIGAN CITY    1340            53  170/  8/ 10   N/A
$$

ABBREVIATIONS USED IN REMARKS
   TC - TEMPERATURE IN CELSIUS
  WCI - WIND CHILL INDEX
   HX - HEAT INDEX
  VSB - VISIBILITY
$$




USA.gov is the U.S. government's official web portal to all federal, state and local government web resources and services.